Regional Weather Roundup
Issued by NWS Wakefield, VA

Home | Current Version | Previous Version | Text Only | Print | Product List | Glossary On
Versions: 1 2 3 4 5 6 7 8 9 10 11 12 13 14 15 16 17 18 19 20 21 22 23 24 25 26 27 28 29 30 31 32 33 34 35 36 37 38 39 40 41 42 43 44 45 46 47 48 49 50
000
ASUS41 KAKQ 132015
RWRAKQ

REGIONAL WEATHER ROUNDUP
NATIONAL WEATHER SERVICE WAKEFIELD VA
300 PM EST WED DEC 13 2017

Note: "fair" indicates few or no clouds below 12,000 feet with no
significant weather and/or obstructions to visibility. * = Denotes
station may not report precipitation (e.g., rain,snow,etc.),
thunder or fog.

VAZ042-051-052>054-056-132100-
NORTHERN VIRGINIA

CITY           SKY/WX    TMP DP  RH WIND       PRES   REMARKS
WASH NATIONAL  MOSUNNY   35   6  29 W13       29.79F
DULLES         MOSUNNY   33   6  32 W7        29.76F
FORT BELVOIR   SUNNY     35   5  28 SW9       29.78F
QUANTICO       MOSUNNY   35   5  28 W10G20    29.81F
FREDERICKSBRG* SUNNY     36  10  33 SW10G22   29.80S
STAFFORD*      SUNNY     34   5  30 SW9       29.83S
WARRENTON      SUNNY     36   0  22 S9        29.75F
CULPEPER*      SUNNY     36   3  25 SW10      29.77F
MANASSAS*      SUNNY     34   7  32 SW12      29.77F
LEESBURG*      SUNNY     34  12  40 NW10      29.76F
WINCHESTER     SUNNY     32   9  37 W8        29.72F
FRONT ROYAL*   MOCLDY    34   9  35 S6        29.71F
LURAY*         MOCLDY    32   9  37 S9        29.71F
$$

VAZ048-049-060>072-079>083-132100-
CENTRAL AND SOUTH CENTRAL VIRGINIA

CITY           SKY/WX    TMP DP  RH WIND       PRES   REMARKS
RICHMOND       PTSUNNY   38   7  27 W15       29.82F
CHESTERFIELD*  NOT AVBL
PETERSBURG*    MOSUNNY   36   3  25 W10G16    29.85F
HANOVER        SUNNY     35   7  31 SW15G21   29.83F
TAPPAHANNOCK*  SUNNY     36   9  32 SW13G22   29.82F
QUINTON*       FAIR      34   7  33 W8        29.83S
CHARLOTTSVILLE SUNNY     36   6  28 S15       29.74F
GORDONSVILLE*  CLEAR     35   7  31 SW13G20   29.75F
ORANGE*        SUNNY     34   7  32 S5G17     29.77F
LOUISA*        MOSUNNY   35   5  27 SW10G16   29.82F
BUMPASS*       FAIR      35   2  25 SW8G16    29.79F
FARMVILLE*     MOSUNNY   38  10  32 SW10G17   29.79F
CREWE*         FAIR      35   8  32 W10G16    29.83F
FORT PICKETT*  NOT AVBL
CHASE CITY*    FAIR      36   8  30 SW7       29.84F
CLARKSVILLE*   FAIR      37  10  32 SW7       29.86S
SOUTH HILL*    SUNNY     36  10  34 W8        29.91S
LAWRENCEVILLE* FAIR      36   5  27 W7        29.85S
EMPORIA*       MOSUNNY   36   9  32 SW8       29.88S
$$

VAZ088>098-132100-
SOUTHEAST VIRGINIA

CITY           SKY/WX    TMP DP  RH WIND       PRES   REMARKS
NORFOLK        MOSUNNY   37   7  28 W10G17    29.84S
VIRGINIA BEACH MOSUNNY   36   6  28 W10       29.83F
NORFOLK NAVAL  MOSUNNY   37   8  30 W15G25    29.85S
WEST POINT*    SUNNY    N/A N/A N/A W10       29.85S
SALUDA*        FAIR      35   6  30 W9        29.83S
NEWPORT NEWS   MOSUNNY   36   9  32 W10G20    29.84S
LANGLEY AFB    SUNNY     36  10  34 W17       29.83F
FORT EUSTIS    MOSUNNY   36   9  32 W12       29.81F
WILLIAMSBURG*  MOSUNNY   37  10  32 W9        29.85R
HR EXEC AP*    FAIR      37   8  30 W12       29.86S
FRANKLIN*      MOSUNNY   36   7  29 W13G18    29.87R
US460-WAKEFLD  MOSUNNY   36   8  31 W12       29.85S
$$

VAZ020-022-025-037-045-132100-
WEST CENTRAL AND SOUTHWEST VIRGINIA

CITY           SKY/WX    TMP DP  RH WIND       PRES   REMARKS
STAUNTON*      SUNNY     33   8  35 SW12      29.72F WCI  24
WAYNESBORO*    CLEAR     32   7  35 SW13G21   29.71F WCI  23
HOT SPRINGS VA CLOUDY    23   6  49 W14       29.61F WCI  10
LYNCHBURG      CLOUDY    36   8  31 SW8G20    29.78F
DANVILLE       MOSUNNY   40  11  30 SW13G22   29.84F
SOUTH BOSTON*  FAIR      39   6  25 SW12      29.85F
MARTINSVILLE   SUNNY     39   8  27 SW6       29.83F
ROANOKE        MOSUNNY   39  12  33 SW13      29.78F
BLACKSBURG     SUNNY     35  14  43 SW8       29.75F
DUBLIN*        CLOUDY    36  16  43 SW16      29.74F
MARION*        SUNNY     34   6  31 W15       29.74F WCI  25
HILLSVILLE*    SUNNY     35  13  41 SW10G20   29.70F
RICHLANDS*     MOCLDY    32  11  41 S5        29.68F
WISE*          PTSUNNY   32  12  43 S10       29.69F WCI  24
ABINGDON*      CLOUDY    38   9  30 SW13      29.75F
$$

MDZ021>025-VAZ099-100-132100-
SOUTHERN MARYLAND AND THE DELMARVA PENINSULA

CITY           SKY/WX    TMP DP  RH WIND       PRES   REMARKS
PATUXENT RIVER SUNNY     34   6  31 W20G25    29.80F WCI  23
BAY BRIDGE APT SUNNY     32   9  37 W14G21    29.78F WCI  22
LEONARDTOWN    SUNNY     34   9  35 W15       29.81F WCI  24
DOVER          SUNNY     30   8  38 W17G29    29.74R WCI  19
GEORGETOWN     SUNNY     32   5  32 W13G25    29.78R WCI  22
EASTON         MOSUNNY   34   5  29 W13G21    29.81S WCI  25
CAMBRIDGE      SUNNY     32   5  32 W13G21    29.79F WCI  22
SALISBURY      SUNNY     32   9  38 W16G26    29.79S WCI  21
OCEAN CITY     SUNNY     31   8  38 W15G24    29.79R WCI  20
WALLOPS ISLAND PTSUNNY   33  11  39 W15G22    29.81S WCI  23
ACCOMACK*      SUNNY     35  12  38 W14G22    29.82S
$$

NCZ012>017-030>032-132100-
NORTH CENTRAL AND EASTERN NORTH CAROLINA

CITY           SKY/WX    TMP DP  RH WIND       PRES   REMARKS
ROANOKE RAPIDS FAIR      37  10  32 W8        29.88S
RALEIGH        MOSUNNY   41   8  25 SW12      29.88F
ELIZABETH CITY SUNNY     39  11  31 W15G21    29.86F
AHOSKIE*       MOSUNNY   38  10  31 CALM      29.88S
EDENTON*       SUNNY     41   9  26 W10G17    29.88S
CURRITUCK*     SUNNY     38  11  33 SW9       29.84F
KILL DEVIL HLS SUNNY     36  11  35 W8G16     29.85S
MANTEO         SUNNY     37  13  37 NW9G18    29.88R
CAPE HATTERAS  SUNNY     40  18  41 W12G20    29.89S
TARBORO*       NOT AVBL
GOLDSBORO      SUNNY     44  10  24 W13       29.89F
WASHINGTON     SUNNY     42   8  25 W12G18    29.91R
GREENVILLE     SUNNY     41   9  26 W9G18     29.93S
NEW BERN       SUNNY     41  13  31 NW12      29.91F
WILMINGTON     SUNNY     48  14  25 W10       29.93F
$$

VAZ048-132100-
ELSEWHERE

CITY           SKY/WX    TMP DP  RH WIND       PRES   REMARKS
HARRISBURG PA  MOSUNNY   29   7  39 W13       29.72S WCI  19
BALTIMORE      MOSUNNY   32   6  33 W14       29.75F WCI  22
ANNAPOLIS      SUNNY     33   9  36 NW10G20   29.77F WCI  25
ANDREWS AFB    SUNNY     33   5  30 W13G21    29.76S WCI  24
PHILADELPHIA   MOSUNNY   31   4  31 W22G32    29.72R WCI  18
HENDERSON NC   SUNNY     36   6  28 SW12G17   29.86F
GREENSBORO     PTSUNNY   41  12  30 SW15G21   29.83F
ROCKY MOUNT    SUNNY     40  10  29 W10       29.90S
$$

VAZ100-132100-
MARINE

STATION/POSITION TIME  TEMP    WIND        PRES    WAVE   SWELL
                       AIR SEA DIR/SP/G            HT/PER HT/PER
                 (UTC) (F)     (DEG/KT/KT) (MB)    (FT/S) (FT/S)
BRANDYWINE LGT   1942   30     290/ 27/ 35 1007.8R
CAPE MAY NJ      1942   30 37  300/ 23/ 29 1006.9R
LEWES DE         1948   31 42  280/ 18/ 22 1007.8R
15NM E FENWICK I 1950   32 54  260/ 21/ 27 1008.2R   6/ 5
OCEAN-CITY-INLET 1948   31 40  290/ 12/ 17 1009.0R
WACHAPREAGUE VA  1948   34 39  250/  7/ 15 1009.8F
THOMAS POINT MD  2000   32 45  280/ 15/ 20   N/A
GOOSES REEF MD   2000   34 46  270/ 14/ 19 1009.3    2/ 3
COVE POINT MD    1948   33     280/ 11/ 18 1009.5S
SOLOMONS ISLAND  1918   33 46  280/ 13/ 21 1009.0
BISHOPS HEAD MD  1948   32 31  270/ 17/ 22 1009.5F
PINEY POINT MD   1936          280/ 14/ 17   N/A
POTOMAC MD       2000   35 47  260/ 17/ 23 1008.8    2/ 3
CAMBRIDGE MD     1942   34 42              1009.4S
LEWISETTA VA     1948   33 41  300/ 12/ 15 1009.7S
RAPPAHANNOCK LGT 1936          270/ 19/ 23 1010.2F
STINGRAY PT      2000   36 47  300/ 17/ 21 1010.1    1/ 2
YORK RVR RNG VA  1948   35     290/ 18/ 21 1010.7R
YORKTOWN VA      1948   35 48  280/ 14/ 18 1010.0F
JAMESTOWN VA     2000      45  250/ 10/ 16   N/A     1
DOMINION TERM VA 1936   36     270/ 16/ 19 1010.3R
KIPTOPEKE VA     1936      42  300/ 17/ 20   N/A
CAPE HENRY VA    1936   35     260/ 13/ 17   N/A
WILLOUBY STN VA  1936          270/ 16/ 19 1009.8F
S CRANEY ISL VA  1936   36     260/ 10/ 19 1010.1F
CAPE HENRY BUOY  2000      53                N/A     3/ 5
1ST LANDING BUOY 2000   36 49  300/ 17/ 23 1010.4    3/ 3
CAPE CHARLES BUO 1951      52                N/A     3/ 4
64NM E OF VA BCH 1950   36 58  290/ 17/ 25 1010.5S   7/ 7   2/11
DUCK PIER NC     1936   37 54  270/ 11/ 16 1010.6R
44100 DUCK FRF   1915      55                N/A     4/ 7
44056 DUCK FRF   2000      56                N/A     3/ 7
OREGON INLET NC  1936   37 44  280/ 10/ 15 1011.5R
HATTERAS NC      1936   38 49  280/ 17/ 23 1011.5F
DIAMOND SHLS NC  1950   41 74  290/ 17/ 29 1012.2F   6/ 8   3/14
CAPE LOOKOUT NC  2000          280/ 11/ 15 1013.0F
$$



USA.gov is the U.S. government's official web portal to all federal, state and local government web resources and services.